This demonstration page uses our WeatherBlox Daily Observations layout. Learn more.

Left ArrowRight Arrow

39.92423, -83.80882

Hourly Observations for July 13, 2020

Temp ( °F °C ) Dew Point ( °F °C ) Humidity (%) Winds ( mph kmh ) Pressure ( in mb ) Visibility ( mi km ) Precip ( " mm )
12:56 am 00:56 Clear 64 17.8 64 17.8 100 100 W 3 6 29.90 1013 7 11 0.01 0.25
1:56 am 01:56 Clear with Mist and Fog 63 17.2 63 17.2 100 100 N N/A 29.89 1012 5 8 N/A
2:56 am 02:56 Clear with Mist and Fog 63 17.2 63 17.2 100 100 SW 5 7 29.88 1012 4 6 N/A
3:56 am 03:56 Clear with Mist and Fog 62 16.7 62 16.7 100 100 SW 3 6 29.88 1012 3 5 N/A
4:04 am 04:04 Clear with Mist and Fog 63 17 63 17 100 100 SSW 3 6 29.87 1012 3 4 N/A
4:27 am 04:27 Clear with Mist and Fog 61 16 61 16 100 100 SW 3 6 29.88 1012 2 2 0.01 0.25
4:38 am 04:38 Clear with Mist and Fog 61 16 61 16 100 100 WSW 5 7 29.89 1012 3 4 0.01 0.25
4:46 am 04:46 Clear with Mist and Fog 61 16 61 16 100 100 W 5 7 29.89 1012 3 5 0.01 0.25
4:56 am 04:56 Clear with Mist and Fog 61 16.1 61 16.1 100 100 W 5 7 29.90 1013 4 6 0.01 0.25
5:56 am 05:56 Clear with Mist and Fog 61 16.1 61 16.1 100 100 N N/A 29.91 1013 4 6 N/A
6:01 am 06:01 Clear with Mist and Fog 61 16 61 16 100 100 N N/A 29.90 1012 2 2 N/A
6:03 am 06:03 Clear with Mist and Fog 61 16 61 16 100 100 NNW 3 6 29.90 1012 1 1 N/A
6:11 am 06:11 Clear with Fog 61 16 61 16 100 100 N N/A 29.90 1012 1 1 N/A
6:16 am 06:16 Clear with Mist and Fog 61 16 61 16 100 100 N N/A 29.91 1013 1 2 N/A
6:22 am 06:22 Sunny with Fog 61 16 61 16 100 100 N N/A 29.91 1013 1 1 N/A
6:34 am 06:34 Sunny with Mist and Fog 61 16 61 16 100 100 N N/A 29.91 1013 1 2 N/A
6:41 am 06:41 Sunny with Mist and Fog 61 16 61 16 100 100 N N/A 29.91 1013 1 2 N/A
6:56 am 06:56 Sunny with Mist and Fog 61 16.1 61 16.1 100 100 W 3 6 29.91 1013 2 3 N/A
7:07 am 07:07 Sunny with Mist and Fog 63 17 63 17 100 100 W 3 6 29.90 1013 3 5 N/A
7:20 am 07:20 Sunny with Mist and Fog 63 17 63 17 100 100 N N/A 29.91 1013 3 4 N/A
7:28 am 07:28 Sunny with Mist and Fog 63 17 63 17 100 100 N N/A 29.91 1013 3 5 N/A
7:56 am 07:56 Sunny with Mist and Fog 64 17.8 64 17.8 100 100 W 5 7 29.93 1014 6 10 N/A
8:56 am 08:56 Sunny 67 19.4 67 19.4 100 100 N N/A 29.93 1014 9 14 N/A
9:53 am 09:53 Mostly Sunny 72 22 70 21 94 94 N N/A 29.92 1013 10 16 N/A
9:56 am 09:56 Mostly Sunny 71 21.7 69 20.6 94 94 N 5 7 29.95 1014 10 16 N/A
10:56 am 10:56 Sunny 75 23.9 68 20 79 79 N N/A 29.96 1014 10 16 N/A
11:56 am 11:56 Mostly Cloudy 77 25 69 20.6 77 77 SW 5 7 29.96 1014 10 16 N/A
12:15 pm 12:15 Mostly Cloudy 79 26 66 19 65 65 WNW 5 7 29.92 1013 10 16 N/A
12:56 pm 12:56 Cloudy 78 25.6 67 19.4 69 69 WNW 10 17 29.96 1015 10 16 N/A
1:56 pm 13:56 Cloudy 79 26.1 65 18.3 62 62 N 12 19 29.95 1014 10 16 N/A
2:56 pm 14:56 Mostly Sunny 82 27.8 65 18.3 56 56 NW 8 13 29.95 1014 10 16 N/A
3:56 pm 15:56 Mostly Sunny 83 28.3 65 18.3 55 55 NW 10 17 29.95 1014 10 16 N/A
4:56 pm 16:56 Partly Cloudy 83 28.3 65 18.3 55 55 NW 14 22 29.95 1014 10 16 N/A
5:56 pm 17:56 Sunny 82 27.8 63 17.2 53 53 NW 9 15 29.96 1014 10 16 N/A
6:56 pm 18:56 Sunny 80 26.7 63 17.2 56 56 NNW 10 17 29.96 1015 10 16 0.01 0.25
7:56 pm 19:56 Sunny 79 26.1 62 16.7 56 56 NNW 7 11 29.96 1015 10 16 N/A
8:56 pm 20:56 Sunny 75 23.9 63 17.2 66 66 NNW 6 9 29.97 1015 10 16 N/A
9:56 pm 21:56 Clear 72 22.2 63 17.2 73 73 NNW 3 6 29.98 1015 10 16 N/A
10:56 pm 22:56 Cloudy 70 21.1 63 17.2 79 79 N N/A 29.99 1016 10 16 N/A
11:56 pm 23:56 Partly Cloudy 69 20.6 63 17.2 81 81 N N/A 30.00 1016 10 16 N/A

Powered by AerisWeather